This is the latest recevied weather packets stored in our database for station/object KD4WXI. If no packets are shown the sender has not sent any weather packets the latest 10 day(s).
| Time | Temp. | Humidity | Pressure | Rain* | Wind** | Luminosity | Snow |
|---|---|---|---|---|---|---|---|
| 1778028643 | 20° C | 53% | 1014.2 hPa | 0 mm | - | 0 W/m² | - |
| 1778028341 | 20° C | 52% | 1014.2 hPa | 0 mm | - | 0 W/m² | - |
| 1778028037 | 20.56° C | 52% | 1014.1 hPa | 0 mm | - | 0 W/m² | - |
| 1778027734 | 21.11° C | 50% | 1014 hPa | 0 mm | - | 0 W/m² | - |
| 1778027430 | 21.67° C | 50% | 1014.1 hPa | 0 mm | - | 0 W/m² | - |
| 1778027126 | 21.67° C | 50% | 1014 hPa | 0 mm | - | 0 W/m² | - |
| 1778026822 | 21.67° C | 48% | 1013.9 hPa | 0 mm | - | 1 W/m² | - |
| 1778026518 | 21.67° C | 49% | 1013.9 hPa | 0 mm | - | 1 W/m² | - |
| 1778026216 | 21.67° C | 49% | 1014 hPa | 0 mm | - | 2 W/m² | - |
| 1778025913 | 22.22° C | 48% | 1013.9 hPa | 0 mm | - | 4 W/m² | - |
| 1778025610 | 22.22° C | 46% | 1013.8 hPa | 0 mm | - | 6 W/m² | - |
| 1778025308 | 22.78° C | 45% | 1013.9 hPa | 0 mm | - | 8 W/m² | - |
| 1778025004 | 22.78° C | 45% | 1013.6 hPa | 0 mm | - | 9 W/m² | - |
| 1778024702 | 23.33° C | 44% | 1013.8 hPa | 0 mm | - | 10 W/m² | - |
| 1778024399 | 23.33° C | 43% | 1013.9 hPa | 0 mm | - | 10 W/m² | - |
| 1778024096 | 23.33° C | 43% | 1013.5 hPa | 0 mm | - | 12 W/m² | - |
| 1778023793 | 23.33° C | 43% | 1013.8 hPa | 0 mm | - | 19 W/m² | - |
| 1778023491 | 23.33° C | 44% | 1013.8 hPa | 0 mm | - | 22 W/m² | - |
| 1778023188 | 23.89° C | 44% | 1013.6 hPa | 0 mm | - | 24 W/m² | - |
| 1778022885 | 23.89° C | 43% | 1013.5 hPa | 0 mm | - | 33 W/m² | - |
| 1778022583 | 23.89° C | 42% | 1013.5 hPa | 0 mm | - | 40 W/m² | - |
| 1778022281 | 23.89° C | 43% | 1013.5 hPa | 0 mm | - | 40 W/m² | - |
| 1778021977 | 23.89° C | 43% | 1013.7 hPa | 0 mm | - | 44 W/m² | - |
| 1778021675 | 23.89° C | 43% | 1013.5 hPa | 0 mm | - | 55 W/m² | - |
| 1778021370 | 23.89° C | 43% | 1013.6 hPa | 0 mm | - | 45 W/m² | - |
* Rain latest hour (hover to see other rain measurements)
** Current wind speed in m/s (hover to see current wind gust speed)